Regional Weather Roundup
Issued by NWS

Home | Current Version | Previous Version | Text Only | Print | Product List | Glossary Off
Versions: 1 2 3 4 5 6 7 8 9 10 11 12 13 14 15 16 17 18 19 20 21 22 23 24 25 26 27 28 29 30 31 32 33 34 35 36 37 38 39 40 41 42 43 44 45 46 47 48 49 50

000
ASUS43 KLMK 250402
RWRKY
KENTUCKY REGIONAL WEATHER ROUNDUP
NATIONAL WEATHER SERVICE LOUISVILLE KY
1200 AM EDT SAT APR 25 2015

NOTE "FAIR" INDICATES FEW OR NO CLOUDS BELOW 12,000 FEET
WITH NO SIGNIFICANT WEATHER AND/OR OBSTRUCTIONS TO VISIBILITY.

KYZ001>023-026-027-061>063-070>075-250500-
WESTERN AND SOUTH CENTRAL KENTUCKY

CITY           SKY/WX    TMP DP  RH WIND       PRES   REMARKS
PADUCAH        CLOUDY    58  48  69 S12       29.77F
HENDERSON      CLOUDY    55  39  54 E5        29.83S
OWENSBORO      CLOUDY    57  41  55 SE8       29.84F
HOPKINSVILLE   CLOUDY    58  47  66 S10G18    29.84F
BOWLING GREEN  CLOUDY    57  43  59 CALM      29.88F
GLASGOW        NOT AVBL
$$

KYZ024-025-028>034-038-045-046-053-250500-
NORTH CENTRAL KENTUCKY

CITY           SKY/WX    TMP DP  RH WIND       PRES   REMARKS
LOUISVILLE/SDF CLOUDY    60  33  36 SE5       29.88F
LOUISVILLE/LOU CLOUDY    60  31  33 SE5       29.89F
FORT KNOX      LGT RAIN  56  42  61 NE6       29.85F
$$

KYZ035>037-039>044-047>052-055>060-089>105-250500-
NORTHEAST KENTUCKY

CITY           SKY/WX    TMP DP  RH WIND       PRES   REMARKS
LEXINGTON      CLOUDY    55  34  45 E5        29.91F
COVINGTON      CLOUDY    54  32  43 SE7       29.90F
FRANKFORT      CLOUDY    54  35  48 SE5       29.89F
$$

KYZ054-064>069-076>088-106>120-250500-
SOUTHEAST KENTUCKY

CITY           SKY/WX    TMP DP  RH WIND       PRES   REMARKS
JACKSON        CLOUDY    56  23  27 VRB3      29.92F
LONDON         CLOUDY    58  33  39 CALM      29.91F
SOMERSET       NOT AVBL
MIDDLESBORO    CLOUDY    55  43  62 CALM      29.95F
MONTICELLO     CLOUDY    55  45  69 CALM      29.93F
$$



USA.gov is the U.S. government's official web portal to all federal, state and local government web resources and services.